Regional Weather Roundup
Issued by NWS

Home | Current Version | Previous Version | Graphics & Text | Print | Product List | Glossary On
Versions: 1 2 3 4 5 6 7 8 9 10 11 12 13 14 15 16 17 18 19 20 21 22 23 24 25 26 27 28 29 30 31 32 33 34 35 36 37 38 39 40 41 42 43 44 45 46 47 48 49 50
000
ASUS43 KMPX 111701
RWRMN
WEATHER ROUNDUP FOR MINNESOTA
NATIONAL WEATHER SERVICE TWIN CITIES/CHANHASSEN MN
1100 AM CST MON DEC 11 2017


NOTE: "FAIR" INDICATES FEW OR NO CLOUDS BELOW 12,000 FEET WITH NO
SIGNIFICANT WEATHER AND/OR OBSTRUCTIONS TO VISIBILITY. N/A MEANS
CURRENT SKY AND/OR WEATHER CONDITIONS ARE NOT AVAILABLE.

MNZ060>063-068>070-111800-
   Twin Cities Metro

CITY           SKY/WX    TMP DP  RH WIND       PRES   REMARKS
TWIN CITIES    CLOUDY    34  32  92 N15       29.77R WCI  24
ST PAUL        CLOUDY    33  30  88 NW12      29.78R FOG     WCI  24
CRYSTAL        CLOUDY    34  27  75 NW10      29.77R WCI  26
BLAINE         CLOUDY    34  32  93 NW9       29.76R WCI  26
LAKEVILLE      LGT SNOW  34  30  86 NW10      29.75R WCI  26
EDEN PRAIRIE   CLOUDY    35  31  85 NW12      29.76R WCI  27
SOUTH ST PAUL  PTSUNNY   34  32  93 NW7       29.76R WCI  28
LAKE ELMO      CLOUDY    32  30  93 CALM      29.76R
$$
MNZ001>005-007-008-013>017-022>024-027-028-111800-
   Northwest Minnesota

CITY           SKY/WX    TMP DP  RH WIND       PRES   REMARKS
BEMIDJI        CLOUDY    23  20  89 N16G25    29.95R WCI   9
HALLOCK        CLOUDY    16  10  79 N23G33    30.16R HAZE    WCI  -2
ROSEAU         LGT SNOW  19  16  86 NW20      30.07R WCI   4
WARROAD        LGT SNOW  21  16  79 N14G26    30.05R WCI   8
CROOKSTON      CLOUDY    19  18  93 N31G37    30.10R FOG     WCI   0
FOSSTON        CLOUDY    21  18  86 NW20G30   30.02R FOG     WCI   6
DETROIT LAKES  CLOUDY    27  25  93 N22G31    29.99R FOG     WCI  12
MOORHEAD       CLOUDY    25  19  80 N35G43    30.07R WCI   7
PARK RAPIDS    CLOUDY    26  22  84 NW22G35   29.90R WCI  12
MAHNOMEN       CLOUDY    24  20  84 N24G35    29.99R WCI   8
$$
MNZ006-009>011-018-025>026-111800-
   North Central Minnesota

CITY           SKY/WX    TMP DP  RH WIND       PRES   REMARKS
BAUDETTE       CLOUDY    20  12  71 N22G40    29.99R WCI   3
FLAG ISLAND    LGT SNOW  18   9  68 N23G29    30.04R WCI   0
INTL FALLS     LGT SNOW  20  14  77 N18       29.92R WCI   5
WASKISH        CLOUDY    21  18  86 N16G25    29.97R WCI   7
LONGVILLE      CLOUDY    25  21  86 NW9G22    29.88R FOG     WCI  15
GRAND RAPIDS   CLOUDY    24  21  88 N23       29.87R WCI   9
ORR            CLOUDY    19  16  86 NW12G18   29.84R WCI   7
COOK           CLOUDY    19  18  93 NW9       29.85R WCI   9
WALKER         CLOUDY    24  20  87 N21G30    29.91R WCI   9
$$
MNZ012-019>021-037-111800-
   Northeast Minnesota

CITY           SKY/WX    TMP DP  RH WIND       PRES   REMARKS
DULUTH         FLURRIES  25  22  88 N18G25    29.74R WCI  11
ELY            CLOUDY    19  18  93 NW9G16    29.79R WCI   9
HIBBING        MIX PCPN  22  19  89 N23       29.83R WCI   6
DULUTH HARBOR  CLOUDY    27  25  93 W5        29.80R WCI  21
TWO HARBORS    CLOUDY    30  25  80 NW9G18    29.73S WCI  22
G MARAIS ARPRT CLOUDY    19  12  73 NW12G28   29.68S WCI   7
$$
MNZ029>031-032-039>041-046>048-054>057-064-111800-
   West Central Minnesota

CITY           SKY/WX    TMP DP  RH WIND       PRES   REMARKS
FERGUS FALLS   CLOUDY    25  23  93 N32G45    30.01R WCI   7
MORRIS         CLOUDY    30  27  86 N31G40    29.95R WCI  15
ALEXANDRIA     CLOUDY    32  27  81 N24G33    29.90R WCI  19
ELBOW LAKE     CLOUDY    27  25  93 NW24G36   29.96R FOG     WCI  12
WADENA         CLOUDY    28  25  86 N22G29    29.90R WCI  15
GLENWOOD       MOSUNNY   34  28  80 N23G32    29.88R WCI  22
BENSON         CLOUDY    32  28  86 N24G33    29.93R WCI  19
ORTONVILLE     CLOUDY    30  25  80 N30G39    29.99R WCI  15
MADISON        CLOUDY    36  30  80 N33G45    29.96R
WILLMAR        CLOUDY    36  34  93 NW24G30   29.87R
$$
MNZ033>034-036-042>043-049>051-058-059-111800-
   Central Minnesota

CITY           SKY/WX    TMP DP  RH WIND       PRES   REMARKS
ST CLOUD       CLOUDY    35  31  85 N13G23    29.80R WCI  26
SAUK CENTRE    CLOUDY    34  29  84 N21G30    29.85R WCI  22
PAYNESVILLE    CLOUDY    35  32  90 NW13G24   29.85R WCI  26
AITKIN         CLOUDY    27  23  86 NW13      29.82R WCI  16
PINE RIVER     CLOUDY    25  21  86 N14G20    29.91R WCI  13
BRAINERD       CLOUDY    30  24  78 N17G26    29.85R WCI  18
STAPLES        CLOUDY    28  25  86 N21G29    29.88R WCI  15
LONG PRAIRIE   CLOUDY    32  28  86 NW18G32   29.85R WCI  20
LITTLE FALLS   CLOUDY    34  27  75 N8G21     29.84R WCI  27
LITCHFIELD     CLOUDY    37  34  87 NW15G22   29.83R
BUFFALO        CLOUDY    35  31  83 NW9G21    29.80R WCI  28
MAPLE LAKE     CLOUDY    37  33  85 NW16G23   29.81R
HUTCHINSON     CLOUDY    37  33  85 NW20G26   29.82R
$$
MNZ037-044-045-052-053-111800-
   East Central Minnesota

CITY           SKY/WX    TMP DP  RH WIND       PRES   REMARKS
PRINCETON      CLOUDY    36  32  87 NW16G23   29.79R
MORA           CLOUDY    32  28  86 N12G18    29.79R WCI  23
CAMBRIDGE      MIX PCPN  34  30  86 NW7       29.78R WCI  28
RUSH CITY      LGT SNOW  31  28  88 NW7       29.77R WCI  24
MOOSE LAKE     CLOUDY    30  25  80 N14G22    29.77R WCI  20
HINCKLEY       CLOUDY    32  28  86 N13       29.78R WCI  22
CLOQUET        CLOUDY    27  21  80 NW16G26   29.77R WCI  14
MCGREGOR       CLOUDY    30  27  86 NW14G23   29.82R WCI  20
$$
MNZ071>073-080-081-089-090-097-098-111800-
   Southwest Minnesota

CITY           SKY/WX    TMP DP  RH WIND       PRES   REMARKS
MONTEVIDEO     CLOUDY    34  30  86 N28G41    29.92R WCI  20
GRANITE FALLS  CLOUDY    37  32  81 NW22G33   29.91R
CANBY          CLOUDY    35  31  85 NW31G39   29.97R WCI  21
MARSHALL       CLOUDY    36  32  85 N29G39    29.89R
REDWOOD FALLS  CLOUDY    37  31  78 NW21G30   29.85R
OLIVIA         CLOUDY    36  32  87 NW24      29.85R
PIPESTONE      CLOUDY    36  30  80 N25G40    29.91R
WINDOM         LGT RAIN  36  25  64 NW31G37   29.84R
WORTHINGTON    CLOUDY    36  33  89 NW25G32   29.88R
JACKSON        CLOUDY    36  32  87 MISG      29.84R
TRACY          CLOUDY    37  34  90 N28G39    29.88R
$$
MNZ065>067-074>077-082>085-091>093-111800-
   South Central Minnesota

CITY           SKY/WX    TMP DP  RH WIND       PRES   REMARKS
MANKATO        CLOUDY    36  30  79 NW14      29.79R
NEW ULM        LGT RAIN  36  30  80 NW20G29   29.82R
ST JAMES       CLOUDY    37  34  87 NW22G30   29.83R
FAIRMONT       CLOUDY    38  33  82 NW23G29   29.81R
GLENCOE        CLOUDY    36  33  90 NW13G20   29.79R
FARIBAULT      CLOUDY    36  30  80 NW9       29.76R
WASECA         CLOUDY    36  32  87 NW12      29.78R
$$
MNZ078>079-086>088-094>096-111800-
   Southeast Minnesota

CITY           SKY/WX    TMP DP  RH WIND       PRES   REMARKS
ROCHESTER      CLOUDY    32  32 100 NW8       29.72R FOG     WCI  25
RED WING       LGT SNOW  30  28  93 CALM      29.75R
STANTON        CLOUDY    35  31  87 NW6       29.74R WCI  29
DODGE CENTER   CLOUDY    34  30  86 W10       29.73R WCI  26
WINONA         MIX PCPN  30  28  93 CALM      29.75S
PRESTON        LGT SNOW  32  31  94 W5        29.71F WCI  27
$$
ABBREVIATIONS USED IN REMARKS
   TC - TEMPERATURES IN CELSIUS
  WCI - WIND CHILL INDEX
   HX - HEAT INDEX
  VSB - VISIBILITY
$$




USA.gov is the U.S. government's official web portal to all federal, state and local government web resources and services.